Time,TemperatureF,DewpointF,PressureIn,WindDirection,WindDirectionDegrees,WindSpeedMPH,WindSpeedGustMPH,Humidity,HourlyPrecipIn,Conditions,Clouds,dailyrainin,SoftwareType,DateUTC
2013-09-17 00:00:00,50.5,41.4,29.76,WNW,291,0.0,0.0,71,0.00,CLR,,0.00,WeatherDisplay:10.37,2013-09-17 07:00:00,
2013-09-17 00:05:00,50.4,41.3,29.75,WNW,291,0.0,0.0,71,0.00,CLR,,0.00,WeatherDisplay:10.37,2013-09-17 07:05:00,
2013-09-17 00:10:00,50.5,41.4,29.75,WNW,291,0.0,0.0,71,0.00,CLR,,0.00,WeatherDisplay:10.37,2013-09-17 07:10:00,
2013-09-17 00:15:00,50.4,41.3,29.76,WNW,291,0.0,0.0,71,0.00,CLR,,0.00,WeatherDisplay:10.37,2013-09-17 07:15:00,
2013-09-17 00:20:00,50.4,41.3,29.75,WNW,291,0.0,0.0,71,0.00,CLR,,0.00,WeatherDisplay:10.37,2013-09-17 07:20:00,
2013-09-17 00:25:00,50.4,41.3,29.75,WNW,291,0.0,0.0,71,0.00,CLR,,0.00,WeatherDisplay:10.37,2013-09-17 07:25:00,
2013-09-17 00:30:00,50.2,41.2,29.75,WNW,291,0.0,0.0,71,0.00,CLR,,0.00,WeatherDisplay:10.37,2013-09-17 07:30:00,
2013-09-17 00:35:00,50.2,41.2,29.75,WNW,291,0.0,0.0,71,0.00,CLR,,0.00,WeatherDisplay:10.37,2013-09-17 07:35:00,
2013-09-17 00:40:00,50.2,41.2,29.75,WNW,291,0.0,0.0,71,0.00,CLR,,0.00,WeatherDisplay:10.37,2013-09-17 07:40:00,
2013-09-17 00:45:00,50.2,41.5,29.75,WNW,291,0.0,0.0,72,0.00,CLR,,0.00,WeatherDisplay:10.37,2013-09-17 07:45:00,
2013-09-17 00:50:00,50.2,41.5,29.75,WNW,291,0.0,0.0,72,0.00,CLR,,0.00,WeatherDisplay:10.37,2013-09-17 07:50:00,
2013-09-17 00:55:00,50.1,41.4,29.75,WNW,291,0.0,0.0,72,0.00,CLR,,0.00,WeatherDisplay:10.37,2013-09-17 07:55:00,
2013-09-17 01:00:00,49.9,41.2,29.75,WNW,291,0.0,0.0,72,0.00,CLR,,0.00,WeatherDisplay:10.37,2013-09-17 08:00:00,
2013-09-17 01:05:00,49.9,41.6,29.74,WNW,291,0.0,0.0,73,0.00,CLR,,0.00,WeatherDisplay:10.37,2013-09-17 08:05:00,
2013-09-17 01:10:00,49.9,41.6,29.74,WNW,291,0.0,0.0,73,0.00,CLR,,0.00,WeatherDisplay:10.37,2013-09-17 08:10:00,
2013-09-17 01:15:00,49.9,41.6,29.74,WNW,291,0.0,0.0,73,0.00,CLR,,0.00,WeatherDisplay:10.37,2013-09-17 08:15:00,
2013-09-17 01:20:00,49.9,41.6,29.74,WNW,291,0.0,0.0,73,0.00,CLR,,0.00,WeatherDisplay:10.37,2013-09-17 08:20:00,
2013-09-17 01:25:00,49.9,41.9,29.74,WNW,291,0.0,0.0,74,0.00,CLR,,0.00,WeatherDisplay:10.37,2013-09-17 08:25:00,
2013-09-17 01:30:00,49.8,41.8,29.74,WNW,291,0.0,0.0,74,0.00,CLR,,0.00,WeatherDisplay:10.37,2013-09-17 08:30:00,
2013-09-17 01:35:00,49.8,41.8,29.74,WNW,291,0.0,0.0,74,0.00,CLR,,0.00,WeatherDisplay:10.37,2013-09-17 08:35:00,
2013-09-17 01:40:00,49.9,41.9,29.74,WNW,291,0.0,0.0,74,0.00,CLR,,0.00,WeatherDisplay:10.37,2013-09-17 08:40:00,
2013-09-17 01:45:00,49.9,41.9,29.74,WNW,291,0.0,0.0,74,0.00,CLR,,0.00,WeatherDisplay:10.37,2013-09-17 08:45:00,
2013-09-17 01:50:00,49.8,41.8,29.74,WNW,291,0.0,0.0,74,0.00,CLR,,0.00,WeatherDisplay:10.37,2013-09-17 08:50:00,
2013-09-17 01:55:00,49.8,42.2,29.74,WNW,291,0.0,0.0,75,0.00,CLR,,0.00,WeatherDisplay:10.37,2013-09-17 08:55:00,
2013-09-17 02:00:00,49.8,42.2,29.73,WNW,291,0.0,0.0,75,0.00,CLR,,0.00,WeatherDisplay:10.37,2013-09-17 09:00:00,
2013-09-17 02:05:00,49.8,41.8,29.73,WNW,291,0.0,0.0,74,0.00,CLR,,0.00,WeatherDisplay:10.37,2013-09-17 09:05:00,
2013-09-17 02:10:00,49.6,42.0,29.73,WNW,291,0.0,0.0,75,0.00,CLR,,0.00,WeatherDisplay:10.37,2013-09-17 09:10:00,
2013-09-17 02:15:00,49.6,42.0,29.73,WNW,291,0.0,0.0,75,0.00,CLR,,0.00,WeatherDisplay:10.37,2013-09-17 09:15:00,
2013-09-17 02:20:00,49.5,41.9,29.73,WNW,291,0.0,0.0,75,0.00,CLR,,0.00,WeatherDisplay:10.37,2013-09-17 09:20:00,
2013-09-17 02:25:00,49.5,41.9,29.73,WNW,291,0.0,0.0,75,0.00,CLR,,0.00,WeatherDisplay:10.37,2013-09-17 09:25:00,
2013-09-17 02:30:00,49.5,41.9,29.73,WNW,291,0.0,0.0,75,0.00,CLR,,0.00,WeatherDisplay:10.37,2013-09-17 09:30:00,
2013-09-17 02:35:00,49.4,42.1,29.73,WNW,291,0.0,0.0,76,0.00,CLR,,0.00,WeatherDisplay:10.37,2013-09-17 09:35:00,
2013-09-17 02:40:00,49.4,42.5,29.73,WNW,291,0.0,0.0,77,0.00,CLR,,0.00,WeatherDisplay:10.37,2013-09-17 09:40:00,
2013-09-17 02:45:00,49.4,42.5,29.73,WNW,291,0.0,0.0,77,0.00,CLR,,0.00,WeatherDisplay:10.37,2013-09-17 09:45:00,
2013-09-17 02:50:00,49.4,42.5,29.73,WNW,291,0.0,0.0,77,0.00,CLR,,0.00,WeatherDisplay:10.37,2013-09-17 09:50:00,
2013-09-17 02:55:00,49.4,42.5,29.73,WNW,291,0.0,0.0,77,0.00,CLR,,0.00,WeatherDisplay:10.37,2013-09-17 09:55:00,
2013-09-17 03:00:00,49.2,42.3,29.73,WNW,291,0.0,0.0,77,0.00,CLR,,0.00,WeatherDisplay:10.37,2013-09-17 10:00:00,
2013-09-17 03:05:00,49.1,42.2,29.73,WNW,291,0.0,0.0,77,0.00,CLR,,0.00,WeatherDisplay:10.37,2013-09-17 10:05:00,
2013-09-17 03:10:00,48.9,42.0,29.73,WNW,291,0.0,0.0,77,0.00,CLR,,0.00,WeatherDisplay:10.37,2013-09-17 10:10:00,
2013-09-17 03:15:00,48.8,41.9,29.73,WNW,291,0.0,0.0,77,0.00,CLR,,0.00,WeatherDisplay:10.37,2013-09-17 10:15:00,
2013-09-17 03:20:00,48.8,41.9,29.73,WNW,291,0.0,0.0,77,0.00,CLR,,0.00,WeatherDisplay:10.37,2013-09-17 10:20:00,
2013-09-17 03:25:00,48.8,41.9,29.73,WNW,291,0.0,0.0,77,0.00,CLR,,0.00,WeatherDisplay:10.37,2013-09-17 10:25:00,
2013-09-17 03:30:00,48.6,41.7,29.73,WNW,291,0.0,0.0,77,0.00,CLR,,0.00,WeatherDisplay:10.37,2013-09-17 10:30:00,
2013-09-17 03:35:00,48.5,41.6,29.73,WNW,291,0.0,0.0,77,0.00,CLR,,0.00,WeatherDisplay:10.37,2013-09-17 10:35:00,
2013-09-17 03:40:00,48.3,41.4,29.73,WNW,291,0.0,0.0,77,0.00,CLR,,0.00,WeatherDisplay:10.37,2013-09-17 10:40:00,
2013-09-17 03:45:00,48.2,41.3,29.74,WNW,291,0.0,0.0,77,0.00,CLR,,0.00,WeatherDisplay:10.37,2013-09-17 10:45:00,
2013-09-17 03:50:00,48.0,41.5,29.73,WNW,291,0.0,0.0,78,0.00,CLR,,0.00,WeatherDisplay:10.37,2013-09-17 10:50:00,
2013-09-17 03:55:00,47.7,41.2,29.73,WNW,291,0.0,0.0,78,0.00,CLR,,0.00,WeatherDisplay:10.37,2013-09-17 10:55:00,
2013-09-17 04:00:00,47.6,41.1,29.73,WNW,291,0.0,0.0,78,0.00,CLR,,0.00,WeatherDisplay:10.37,2013-09-17 11:00:00,
2013-09-17 04:05:00,47.4,40.9,29.74,WNW,291,0.0,0.0,78,0.00,CLR,,0.00,WeatherDisplay:10.37,2013-09-17 11:05:00,
2013-09-17 04:10:00,47.6,41.1,29.73,WNW,291,0.0,0.0,78,0.00,CLR,,0.00,WeatherDisplay:10.37,2013-09-17 11:10:00,
2013-09-17 04:15:00,47.4,40.6,29.73,WNW,291,0.0,0.0,77,0.00,CLR,,0.00,WeatherDisplay:10.37,2013-09-17 11:15:00,
2013-09-17 04:20:00,47.6,41.1,29.72,WNW,291,0.0,0.0,78,0.00,CLR,,0.00,WeatherDisplay:10.37,2013-09-17 11:20:00,
2013-09-17 04:25:00,47.7,41.2,29.73,WNW,291,0.0,0.0,78,0.00,CLR,,0.00,WeatherDisplay:10.37,2013-09-17 11:25:00,
2013-09-17 04:30:00,47.7,41.2,29.72,WNW,291,0.0,0.0,78,0.00,CLR,,0.00,WeatherDisplay:10.37,2013-09-17 11:30:00,
2013-09-17 04:35:00,47.9,41.4,29.72,WNW,291,0.0,0.0,78,0.00,CLR,,0.00,WeatherDisplay:10.37,2013-09-17 11:35:00,
2013-09-17 04:40:00,48.0,41.5,29.72,WNW,291,0.0,0.0,78,0.00,CLR,,0.00,WeatherDisplay:10.37,2013-09-17 11:40:00,
2013-09-17 04:45:00,48.0,41.1,29.72,WNW,288,0.0,0.0,77,0.00,CLR,,0.00,WeatherDisplay:10.37,2013-09-17 11:45:00,
2013-09-17 04:50:00,48.2,41.3,29.72,WNW,288,0.0,0.0,77,0.00,CLR,,0.00,WeatherDisplay:10.37,2013-09-17 11:50:00,
2013-09-17 04:55:00,48.2,41.3,29.72,WNW,288,0.0,0.0,77,0.00,CLR,,0.00,WeatherDisplay:10.37,2013-09-17 11:55:00,
2013-09-17 05:00:00,48.3,41.4,29.73,WNW,288,0.0,0.0,77,0.00,CLR,,0.00,WeatherDisplay:10.37,2013-09-17 12:00:00,
2013-09-17 05:05:00,48.3,41.4,29.73,WNW,288,0.0,0.0,77,0.00,CLR,,0.00,WeatherDisplay:10.37,2013-09-17 12:05:00,
2013-09-17 05:10:00,48.3,41.4,29.73,WNW,288,0.0,0.0,77,0.00,CLR,,0.00,WeatherDisplay:10.37,2013-09-17 12:10:00,
2013-09-17 05:15:00,48.3,41.4,29.73,WNW,287,0.0,0.0,77,0.00,CLR,,0.00,WeatherDisplay:10.37,2013-09-17 12:15:00,
2013-09-17 05:20:00,48.2,41.3,29.73,WNW,287,0.0,0.0,77,0.00,CLR,,0.00,WeatherDisplay:10.37,2013-09-17 12:20:00,
2013-09-17 05:25:00,48.2,41.3,29.73,WNW,287,0.0,0.0,77,0.00,CLR,,0.00,WeatherDisplay:10.37,2013-09-17 12:25:00,
2013-09-17 05:30:00,48.2,41.3,29.72,WNW,287,0.0,0.0,77,0.00,CLR,,0.00,WeatherDisplay:10.37,2013-09-17 12:30:00,
2013-09-17 05:35:00,48.2,41.3,29.72,WNW,287,0.0,0.0,77,0.00,CLR,,0.00,WeatherDisplay:10.37,2013-09-17 12:35:00,
2013-09-17 05:40:00,48.2,41.3,29.72,WNW,287,0.0,0.0,77,0.00,CLR,,0.00,WeatherDisplay:10.37,2013-09-17 12:40:00,
2013-09-17 05:45:00,48.2,41.3,29.72,WNW,287,0.0,0.0,77,0.00,CLR,,0.00,WeatherDisplay:10.37,2013-09-17 12:45:00,
2013-09-17 05:50:00,48.2,41.7,29.72,WNW,287,0.0,0.0,78,0.00,CLR,,0.00,WeatherDisplay:10.37,2013-09-17 12:50:00,
2013-09-17 05:55:00,48.2,41.7,29.72,WNW,287,0.0,0.0,78,0.00,CLR,,0.00,WeatherDisplay:10.37,2013-09-17 12:55:00,
2013-09-17 06:00:00,48.3,41.8,29.72,WNW,287,0.0,0.0,78,0.00,CLR,,0.00,WeatherDisplay:10.37,2013-09-17 13:00:00,
2013-09-17 06:05:00,48.3,41.8,29.75,WNW,287,0.0,0.0,78,0.00,CLR,,0.00,WeatherDisplay:10.37,2013-09-17 13:05:00,
2013-09-17 06:10:00,48.3,41.8,29.75,WNW,287,0.0,0.0,78,0.00,CLR,,0.00,WeatherDisplay:10.37,2013-09-17 13:10:00,
2013-09-17 06:15:00,48.3,41.8,29.76,WNW,287,0.0,0.0,78,0.00,CLR,,0.00,WeatherDisplay:10.37,2013-09-17 13:15:00,
2013-09-17 06:20:00,48.3,41.8,29.76,WNW,287,0.0,0.0,78,0.00,CLR,,0.00,WeatherDisplay:10.37,2013-09-17 13:20:00,
2013-09-17 06:25:00,48.3,42.1,29.75,WNW,287,0.0,0.0,79,0.00,CLR,,0.00,WeatherDisplay:10.37,2013-09-17 13:25:00,
2013-09-17 06:30:00,48.5,42.3,29.75,WNW,287,0.0,0.0,79,0.00,CLR,,0.00,WeatherDisplay:10.37,2013-09-17 13:30:00,
2013-09-17 06:35:00,48.6,42.4,29.75,WNW,287,0.0,0.0,79,0.00,CLR,,0.00,WeatherDisplay:10.37,2013-09-17 13:35:00,
2013-09-17 06:40:00,48.6,42.4,29.75,WNW,287,0.0,0.0,79,0.00,CLR,,0.00,WeatherDisplay:10.37,2013-09-17 13:40:00,
2013-09-17 06:45:00,48.6,42.4,29.75,WNW,287,0.0,0.0,79,0.00,CLR,,0.00,WeatherDisplay:10.37,2013-09-17 13:45:00,
2013-09-17 06:50:00,48.8,42.6,29.75,WNW,287,0.0,0.0,79,0.00,CLR,,0.00,WeatherDisplay:10.37,2013-09-17 13:50:00,
2013-09-17 06:55:00,48.8,42.9,29.74,WNW,287,0.0,0.0,80,0.00,CLR,,0.00,WeatherDisplay:10.37,2013-09-17 13:55:00,
2013-09-17 07:00:00,48.9,43.0,29.74,WNW,287,0.0,0.0,80,0.00,CLR,,0.00,WeatherDisplay:10.37,2013-09-17 14:00:00,
2013-09-17 07:05:00,48.9,43.0,29.75,WNW,287,0.0,0.0,80,0.00,CLR,,0.00,WeatherDisplay:10.37,2013-09-17 14:05:00,
2013-09-17 07:10:00,48.9,43.0,29.73,WNW,295,0.0,0.0,80,0.00,CLR,,0.00,WeatherDisplay:10.37,2013-09-17 14:10:00,
2013-09-17 07:15:00,48.9,43.0,29.78,West,274,0.0,0.0,80,0.00,CLR,,0.00,WeatherDisplay:10.37,2013-09-17 14:15:00,
2013-09-17 07:20:00,49.1,43.2,29.77,South,189,0.0,0.0,80,0.00,CLR,,0.00,WeatherDisplay:10.37,2013-09-17 14:20:00,
2013-09-17 07:25:00,49.1,43.2,29.78,SSW,193,0.0,0.0,80,0.00,CLR,,0.00,WeatherDisplay:10.37,2013-09-17 14:25:00,
2013-09-17 07:30:00,49.2,43.3,29.76,SSW,193,0.0,0.0,80,0.00,CLR,,0.00,WeatherDisplay:10.37,2013-09-17 14:30:00,
2013-09-17 07:35:00,49.4,43.5,29.77,WSW,241,0.0,0.0,80,0.00,CLR,,0.00,WeatherDisplay:10.37,2013-09-17 14:35:00,
2013-09-17 07:40:00,49.4,43.5,29.77,WSW,244,0.0,0.0,80,0.00,CLR,,0.00,WeatherDisplay:10.37,2013-09-17 14:40:00,
2013-09-17 07:45:00,49.5,43.6,29.75,West,272,0.0,0.0,80,0.00,CLR,,0.00,WeatherDisplay:10.37,2013-09-17 14:45:00,
2013-09-17 07:50:00,49.5,43.6,29.76,West,275,0.0,0.0,80,0.00,CLR,,0.00,WeatherDisplay:10.37,2013-09-17 14:50:00,
2013-09-17 07:55:00,49.5,43.6,29.77,West,275,0.0,0.0,80,0.00,CLR,,0.00,WeatherDisplay:10.37,2013-09-17 14:55:00,
2013-09-17 08:00:00,49.5,43.6,29.77,West,275,0.0,0.0,80,0.00,CLR,,0.00,WeatherDisplay:10.37,2013-09-17 15:00:00,
2013-09-17 08:05:00,49.6,43.7,29.78,West,275,0.0,0.0,80,0.00,CLR,,0.00,WeatherDisplay:10.37,2013-09-17 15:05:00,
2013-09-17 08:10:00,49.6,43.4,29.77,West,275,0.0,0.0,79,0.00,CLR,,0.00,WeatherDisplay:10.37,2013-09-17 15:10:00,
2013-09-17 08:15:00,49.8,43.5,29.78,West,275,0.0,0.0,79,0.00,CLR,,0.00,WeatherDisplay:10.37,2013-09-17 15:15:00,
2013-09-17 08:20:00,49.8,43.9,29.78,West,275,0.0,0.0,80,0.00,CLR,,0.00,WeatherDisplay:10.37,2013-09-17 15:20:00,
2013-09-17 08:25:00,49.8,43.9,29.77,West,275,0.0,0.0,80,0.00,CLR,,0.00,WeatherDisplay:10.37,2013-09-17 15:25:00,
2013-09-17 08:30:00,49.9,44.0,29.77,West,275,0.0,0.0,80,0.00,CLR,,0.00,WeatherDisplay:10.37,2013-09-17 15:30:00,
2013-09-17 08:35:00,49.9,43.6,29.77,West,275,0.0,0.0,79,0.00,CLR,,0.00,WeatherDisplay:10.37,2013-09-17 15:35:00,
2013-09-17 08:40:00,49.9,43.6,29.77,West,275,0.0,0.0,79,0.00,CLR,,0.00,WeatherDisplay:10.37,2013-09-17 15:40:00,
2013-09-17 08:45:00,50.1,43.8,29.76,West,275,0.0,0.0,79,0.00,CLR,,0.00,WeatherDisplay:10.37,2013-09-17 15:45:00,
2013-09-17 08:50:00,50.1,43.8,29.76,West,275,0.0,0.0,79,0.00,CLR,,0.00,WeatherDisplay:10.37,2013-09-17 15:50:00,
2013-09-17 08:55:00,50.1,43.8,29.76,West,275,0.0,0.0,79,0.00,CLR,,0.00,WeatherDisplay:10.37,2013-09-17 15:55:00,
2013-09-17 09:00:00,50.1,43.5,29.76,West,275,0.0,0.0,78,0.00,CLR,,0.00,WeatherDisplay:10.37,2013-09-17 16:00:00,
2013-09-17 09:05:00,50.2,43.6,29.76,West,275,0.0,0.0,78,0.00,CLR,,0.00,WeatherDisplay:10.37,2013-09-17 16:05:00,
2013-09-17 09:10:00,50.2,43.6,29.76,WNW,288,0.0,0.0,78,0.00,CLR,,0.00,WeatherDisplay:10.37,2013-09-17 16:10:00,
2013-09-17 09:15:00,50.2,43.6,29.76,WNW,288,0.0,0.0,78,0.00,CLR,,0.00,WeatherDisplay:10.37,2013-09-17 16:15:00,
2013-09-17 09:20:00,50.2,43.6,29.76,WNW,288,0.0,0.0,78,0.00,CLR,,0.00,WeatherDisplay:10.37,2013-09-17 16:20:00,
2013-09-17 09:25:00,50.2,43.6,29.76,WNW,288,0.0,0.0,78,0.00,CLR,,0.00,WeatherDisplay:10.37,2013-09-17 16:25:00,
2013-09-17 09:30:00,50.2,43.6,29.76,WNW,288,0.0,0.0,78,0.00,CLR,,0.00,WeatherDisplay:10.37,2013-09-17 16:30:00,
2013-09-17 09:35:00,50.4,43.8,29.77,WNW,288,0.0,0.0,78,0.00,CLR,,0.00,WeatherDisplay:10.37,2013-09-17 16:35:00,
2013-09-17 09:40:00,50.4,43.8,29.75,WNW,288,0.0,0.0,78,0.00,CLR,,0.00,WeatherDisplay:10.37,2013-09-17 16:40:00,
2013-09-17 09:45:00,50.5,43.6,29.76,WNW,288,0.0,0.0,77,0.00,CLR,,0.00,WeatherDisplay:10.37,2013-09-17 16:45:00,
2013-09-17 09:50:00,50.5,43.6,29.76,WNW,288,0.0,0.0,77,0.00,CLR,,0.00,WeatherDisplay:10.37,2013-09-17 16:50:00,
2013-09-17 09:55:00,50.7,43.8,29.75,WNW,288,0.0,0.0,77,0.00,CLR,,0.00,WeatherDisplay:10.37,2013-09-17 16:55:00,
2013-09-17 10:00:00,50.7,43.8,29.76,WNW,288,0.0,0.0,77,0.00,CLR,,0.00,WeatherDisplay:10.37,2013-09-17 17:00:00,
2013-09-17 10:05:00,50.8,43.5,29.76,WNW,288,0.0,0.0,76,0.00,CLR,,0.00,WeatherDisplay:10.37,2013-09-17 17:05:00,
2013-09-17 10:10:00,50.8,43.5,29.76,WNW,288,0.0,0.0,76,0.00,CLR,,0.00,WeatherDisplay:10.37,2013-09-17 17:10:00,
2013-09-17 10:15:00,51.0,43.7,29.76,WNW,288,0.0,0.0,76,0.00,CLR,,0.00,WeatherDisplay:10.37,2013-09-17 17:15:00,
2013-09-17 10:20:00,51.1,43.8,29.76,WNW,288,0.0,0.0,76,0.00,CLR,,0.00,WeatherDisplay:10.37,2013-09-17 17:20:00,
2013-09-17 10:25:00,51.3,44.0,29.76,WNW,288,0.0,0.0,76,0.00,CLR,,0.00,WeatherDisplay:10.37,2013-09-17 17:25:00,
2013-09-17 10:30:00,51.4,44.1,29.76,WNW,288,0.0,0.0,76,0.00,CLR,,0.00,WeatherDisplay:10.37,2013-09-17 17:30:00,
2013-09-17 10:35:00,51.6,43.9,29.76,WNW,288,0.0,0.0,75,0.00,CLR,,0.00,WeatherDisplay:10.37,2013-09-17 17:35:00,
2013-09-17 10:40:00,51.7,43.7,29.76,WNW,288,0.0,0.0,74,0.00,CLR,,0.00,WeatherDisplay:10.37,2013-09-17 17:40:00,
2013-09-17 10:45:00,51.9,43.9,29.76,WNW,288,0.0,0.0,74,0.00,CLR,,0.00,WeatherDisplay:10.37,2013-09-17 17:45:00,
2013-09-17 10:50:00,52.2,44.2,29.76,WNW,288,0.0,0.0,74,0.00,CLR,,0.00,WeatherDisplay:10.37,2013-09-17 17:50:00,
2013-09-17 10:55:00,52.5,44.1,29.76,WNW,288,0.0,0.0,73,0.00,CLR,,0.00,WeatherDisplay:10.37,2013-09-17 17:55:00,
2013-09-17 11:00:00,52.8,44.0,29.76,WNW,288,0.0,0.0,72,0.00,CLR,,0.00,WeatherDisplay:10.37,2013-09-17 18:00:00,
2013-09-17 11:05:00,53.1,43.9,29.76,WNW,288,0.0,0.0,71,0.00,CLR,,0.00,WeatherDisplay:10.37,2013-09-17 18:05:00,
2013-09-17 11:10:00,53.3,43.8,29.76,WNW,288,0.0,0.0,70,0.00,CLR,,0.00,WeatherDisplay:10.37,2013-09-17 18:10:00,
2013-09-17 11:15:00,53.7,43.4,29.76,WNW,288,0.0,0.0,68,0.00,CLR,,0.00,WeatherDisplay:10.37,2013-09-17 18:15:00,
2013-09-17 11:20:00,54.1,44.1,29.76,WNW,288,0.0,0.0,69,0.00,CLR,,0.00,WeatherDisplay:10.37,2013-09-17 18:20:00,
2013-09-17 11:26:00,53.9,43.6,29.76,WNW,288,0.0,0.0,68,0.00,CLR,,0.00,WeatherDisplay:10.37,2013-09-17 18:26:00,
2013-09-17 11:31:00,53.9,43.2,29.76,WNW,288,0.0,0.0,67,0.00,CLR,,0.00,WeatherDisplay:10.37,2013-09-17 18:31:00,
2013-09-17 11:36:00,54.2,43.1,29.76,WNW,288,0.0,0.0,66,0.00,CLR,,0.00,WeatherDisplay:10.37,2013-09-17 18:36:00,
2013-09-17 11:41:00,54.4,42.9,29.76,WNW,288,0.0,0.0,65,0.00,CLR,,0.00,WeatherDisplay:10.37,2013-09-17 18:41:00,
2013-09-17 11:46:00,54.7,44.3,29.75,WNW,288,0.0,0.0,68,0.00,CLR,,0.00,WeatherDisplay:10.37,2013-09-17 18:46:00,
2013-09-17 11:51:00,54.7,43.2,29.75,WNW,288,0.0,0.0,65,0.00,CLR,,0.00,WeatherDisplay:10.37,2013-09-17 18:51:00,
2013-09-17 11:56:00,55.4,43.0,29.75,SSW,195,0.0,0.0,63,0.00,CLR,,0.00,WeatherDisplay:10.37,2013-09-17 18:56:00,
2013-09-17 12:01:00,55.6,43.2,29.74,WNW,288,0.0,0.0,63,0.00,CLR,,0.00,WeatherDisplay:10.37,2013-09-17 19:01:00,
2013-09-17 12:06:00,55.7,42.9,29.75,WNW,291,0.0,0.0,62,0.00,CLR,,0.00,WeatherDisplay:10.37,2013-09-17 19:06:00,
2013-09-17 12:11:00,56.3,43.9,29.74,NNW,344,0.0,0.0,63,0.00,CLR,,0.00,WeatherDisplay:10.37,2013-09-17 19:11:00,
2013-09-17 12:16:00,56.7,42.5,29.74,NNE,13,0.0,0.0,59,0.00,CLR,,0.00,WeatherDisplay:10.37,2013-09-17 19:16:00,
2013-09-17 12:21:00,57.2,43.0,29.75,NNE,13,0.0,0.0,59,0.00,CLR,,0.00,WeatherDisplay:10.37,2013-09-17 19:21:00,
2013-09-17 12:26:00,57.2,41.6,29.74,NW,306,0.0,0.0,56,0.00,CLR,,0.00,WeatherDisplay:10.37,2013-09-17 19:26:00,
2013-09-17 12:31:00,56.6,42.0,29.74,NW,306,0.0,0.0,58,0.00,CLR,,0.00,WeatherDisplay:10.37,2013-09-17 19:31:00,
2013-09-17 12:36:00,56.3,40.8,29.74,North,10,0.0,0.0,56,0.00,CLR,,0.00,WeatherDisplay:10.37,2013-09-17 19:36:00,
2013-09-17 12:41:00,56.3,40.3,29.74,North,10,0.0,0.0,55,0.00,CLR,,0.00,WeatherDisplay:10.37,2013-09-17 19:41:00,
2013-09-17 12:46:00,56.3,41.3,29.74,North,10,0.0,0.0,57,0.00,CLR,,0.00,WeatherDisplay:10.37,2013-09-17 19:46:00,
2013-09-17 12:51:00,56.5,40.5,29.74,North,10,0.0,0.0,55,0.00,CLR,,0.00,WeatherDisplay:10.37,2013-09-17 19:51:00,
2013-09-17 12:56:00,56.6,41.1,29.74,North,10,0.0,0.0,56,0.00,CLR,,0.00,WeatherDisplay:10.37,2013-09-17 19:56:00,
2013-09-17 13:01:00,56.7,41.2,29.74,NNE,14,0.0,0.0,56,0.00,CLR,,0.00,WeatherDisplay:10.37,2013-09-17 20:01:00,
2013-09-17 13:06:00,56.7,42.1,29.74,NNE,13,0.0,0.0,58,0.00,CLR,,0.00,WeatherDisplay:10.37,2013-09-17 20:06:00,
2013-09-17 13:11:00,56.7,41.2,29.74,NNE,13,0.0,0.0,56,0.00,CLR,,0.00,WeatherDisplay:10.37,2013-09-17 20:11:00,
2013-09-17 13:16:00,56.6,41.5,29.74,NNE,13,0.0,0.0,57,0.00,CLR,,0.00,WeatherDisplay:10.37,2013-09-17 20:16:00,
2013-09-17 13:21:00,56.7,41.2,29.74,NNE,14,0.0,0.0,56,0.00,CLR,,0.00,WeatherDisplay:10.37,2013-09-17 20:21:00,
2013-09-17 13:26:00,56.6,42.0,29.74,NNE,13,0.0,0.0,58,0.00,CLR,,0.00,WeatherDisplay:10.37,2013-09-17 20:26:00,
2013-09-17 13:31:00,56.2,43.3,29.75,NNE,14,0.0,0.0,62,0.00,CLR,,0.00,WeatherDisplay:10.37,2013-09-17 20:31:00,
2013-09-17 13:36:00,55.9,44.7,29.74,NNE,13,0.0,0.0,66,0.00,CLR,,0.01,WeatherDisplay:10.37,2013-09-17 20:36:00,
2013-09-17 13:41:00,55.0,45.0,29.75,NNE,13,0.0,0.0,69,0.01,RA,,0.01,WeatherDisplay:10.37,2013-09-17 20:41:00,
2013-09-17 13:46:00,54.5,44.2,29.75,NNE,13,0.0,0.0,68,0.01,RA,,0.01,WeatherDisplay:10.37,2013-09-17 20:46:00,
2013-09-17 13:51:00,54.5,44.9,29.75,NW,305,0.0,0.0,70,0.01,CLR,,0.01,WeatherDisplay:10.37,2013-09-17 20:51:00,
2013-09-17 13:56:00,54.1,46.0,29.75,SW,224,0.0,0.0,74,0.02,RA,,0.02,WeatherDisplay:10.37,2013-09-17 20:56:00,
2013-09-17 14:01:00,53.2,46.5,29.76,SSW,205,0.0,0.0,78,0.04,RA,,0.04,WeatherDisplay:10.37,2013-09-17 21:01:00,
2013-09-17 14:06:00,52.0,46.0,29.77,SSW,205,0.0,0.0,80,0.07,RA,,0.07,WeatherDisplay:10.37,2013-09-17 21:06:00,
2013-09-17 14:11:00,51.6,46.0,29.77,SSW,193,0.0,0.0,81,0.07,RA,,0.07,WeatherDisplay:10.37,2013-09-17 21:11:00,
2013-09-17 14:16:00,51.6,45.6,29.77,SSW,193,0.0,0.0,80,0.07,,,0.07,WeatherDisplay:10.37,2013-09-17 21:16:00,
2013-09-17 14:21:00,51.7,45.4,29.76,SSW,193,0.0,0.0,79,0.07,CLR,,0.07,WeatherDisplay:10.37,2013-09-17 21:21:00,
2013-09-17 14:26:00,51.9,45.9,29.77,SSW,193,0.0,0.0,80,0.07,CLR,,0.07,WeatherDisplay:10.37,2013-09-17 21:26:00,
2013-09-17 14:31:00,52.0,46.0,29.77,SSW,193,0.0,0.0,80,0.07,CLR,,0.07,WeatherDisplay:10.37,2013-09-17 21:31:00,
2013-09-17 14:36:00,52.3,46.3,29.77,SSW,193,0.0,0.0,80,0.07,CLR,,0.07,WeatherDisplay:10.37,2013-09-17 21:36:00,
2013-09-17 14:41:00,52.6,46.6,29.76,SSW,193,0.0,0.0,80,0.06,CLR,,0.07,WeatherDisplay:10.37,2013-09-17 21:41:00,
2013-09-17 14:46:00,52.9,47.2,29.76,SSW,193,0.0,0.0,81,0.06,CLR,,0.07,WeatherDisplay:10.37,2013-09-17 21:46:00,
2013-09-17 14:51:00,53.1,46.8,29.76,SSW,193,0.0,0.0,79,0.06,CLR,,0.07,WeatherDisplay:10.37,2013-09-17 21:51:00,
2013-09-17 14:56:00,53.1,46.4,29.76,SSW,193,0.0,0.0,78,0.06,CLR,,0.07,WeatherDisplay:10.37,2013-09-17 21:56:00,
2013-09-17 15:01:00,53.3,47.3,29.76,SSW,193,0.0,0.0,80,0.03,CLR,,0.07,WeatherDisplay:10.37,2013-09-17 22:01:00,
2013-09-17 15:06:00,53.5,47.5,29.76,SSW,193,0.0,0.0,80,0.00,CLR,,0.07,WeatherDisplay:10.37,2013-09-17 22:06:00,
2013-09-17 15:11:00,53.8,46.8,29.76,SSW,193,0.0,0.0,77,0.00,CLR,,0.07,WeatherDisplay:10.37,2013-09-17 22:11:00,
2013-09-17 15:16:00,54.1,47.7,29.76,SSW,193,0.0,0.0,79,0.00,CLR,,0.07,WeatherDisplay:10.37,2013-09-17 22:16:00,
2013-09-17 15:21:00,54.5,48.5,29.76,SSW,193,0.0,0.0,80,0.00,CLR,,0.07,WeatherDisplay:10.37,2013-09-17 22:21:00,
2013-09-17 15:26:00,54.7,47.6,29.76,SSW,193,0.0,0.0,77,0.00,CLR,,0.07,WeatherDisplay:10.37,2013-09-17 22:26:00,
2013-09-17 15:31:00,54.8,47.0,29.77,West,265,0.0,0.0,75,0.00,CLR,,0.07,WeatherDisplay:10.37,2013-09-17 22:31:00,
2013-09-17 15:36:00,54.5,43.0,29.77,West,275,2.3,0.0,65,0.00,CLR,,0.07,WeatherDisplay:10.37,2013-09-17 22:36:00,
2013-09-17 15:41:00,55.0,43.8,29.77,West,277,0.0,0.0,66,0.00,CLR,,0.07,WeatherDisplay:10.37,2013-09-17 22:41:00,
2013-09-17 15:46:00,55.7,44.5,29.77,WNW,296,9.0,9.0,66,0.00,CLR,,0.07,WeatherDisplay:10.37,2013-09-17 22:46:00,
2013-09-17 15:51:00,56.2,44.2,29.76,West,275,11.5,11.5,64,0.00,CLR,,0.07,WeatherDisplay:10.37,2013-09-17 22:51:00,
2013-09-17 15:56:00,56.6,42.9,29.76,WNW,289,16.1,16.1,60,0.00,CLR,,0.07,WeatherDisplay:10.37,2013-09-17 22:56:00,
2013-09-17 16:01:00,56.2,41.6,29.76,WNW,299,17.3,17.3,58,0.00,CLR,,0.07,WeatherDisplay:10.37,2013-09-17 23:01:00,
2013-09-17 16:06:00,55.6,41.5,29.77,West,268,17.3,17.3,59,0.00,CLR,,0.07,WeatherDisplay:10.37,2013-09-17 23:06:00,
2013-09-17 16:11:00,55.0,41.8,29.77,West,268,16.1,16.1,61,0.00,CLR,,0.07,WeatherDisplay:10.37,2013-09-17 23:11:00,
2013-09-17 16:16:00,54.5,41.7,29.78,WNW,282,2.3,2.3,62,0.00,CLR,,0.07,WeatherDisplay:10.37,2013-09-17 23:16:00,
2013-09-17 16:21:00,54.1,41.4,29.78,West,278,13.8,13.8,62,0.00,CLR,,0.07,WeatherDisplay:10.37,2013-09-17 23:21:00,
2013-09-17 16:26:00,53.9,41.6,29.78,West,267,18.4,18.4,63,0.00,CLR,,0.07,WeatherDisplay:10.37,2013-09-17 23:26:00,
2013-09-17 16:31:00,53.8,41.1,29.78,WNW,282,4.6,4.6,62,0.00,CLR,,0.07,WeatherDisplay:10.37,2013-09-17 23:31:00,
2013-09-17 16:36:00,53.5,41.2,29.78,NW,311,11.0,11.0,63,0.00,CLR,,0.07,WeatherDisplay:10.37,2013-09-17 23:36:00,
2013-09-17 16:42:00,53.6,40.5,29.78,West,280,16.0,16.0,61,0.00,CLR,,0.07,WeatherDisplay:10.37,2013-09-17 23:42:00,
2013-09-17 16:47:00,53.6,39.2,29.78,WNW,291,17.3,17.3,58,0.00,CLR,,0.07,WeatherDisplay:10.37,2013-09-17 23:47:00,
2013-09-17 16:52:00,53.8,38.9,29.79,West,272,17.3,17.3,57,0.00,CLR,,0.07,WeatherDisplay:10.37,2013-09-17 23:52:00,
2013-09-17 16:57:00,53.9,38.6,29.79,WNW,288,13.8,13.8,56,0.00,CLR,,0.07,WeatherDisplay:10.37,2013-09-17 23:57:00,
2013-09-17 17:02:00,54.1,38.7,29.79,West,277,5.8,5.8,56,0.00,CLR,,0.07,WeatherDisplay:10.37,2013-09-18 00:02:00,
2013-09-17 17:07:00,53.9,38.1,29.79,West,274,17.0,17.0,55,0.00,CLR,,0.07,WeatherDisplay:10.37,2013-09-18 00:07:00,
2013-09-17 17:12:00,53.8,38.5,29.80,WNW,288,4.6,4.6,56,0.00,CLR,,0.07,WeatherDisplay:10.37,2013-09-18 00:12:00,
2013-09-17 17:17:00,53.6,38.3,29.80,West,278,10.4,10.4,56,0.00,CLR,,0.07,WeatherDisplay:10.37,2013-09-18 00:17:00,
2013-09-17 17:22:00,53.6,38.3,29.80,WNW,301,3.5,3.5,56,0.00,CLR,,0.07,WeatherDisplay:10.37,2013-09-18 00:22:00,
2013-09-17 17:27:00,53.6,37.8,29.80,West,274,11.5,11.5,55,0.00,CLR,,0.07,WeatherDisplay:10.37,2013-09-18 00:27:00,
2013-09-17 17:32:00,53.6,37.8,29.81,West,278,19.6,19.6,55,0.00,CLR,,0.07,WeatherDisplay:10.37,2013-09-18 00:32:00,
2013-09-17 17:37:00,53.5,38.2,29.81,NW,322,14.0,14.0,56,0.00,CLR,,0.07,WeatherDisplay:10.37,2013-09-18 00:37:00,
2013-09-17 17:42:00,53.3,37.5,29.82,WNW,291,16.1,16.1,55,0.00,CLR,,0.07,WeatherDisplay:10.37,2013-09-18 00:42:00,
2013-09-17 17:47:00,53.2,38.4,29.82,West,278,12.0,12.0,57,0.00,CLR,,0.07,WeatherDisplay:10.37,2013-09-18 00:47:00,
2013-09-17 17:52:00,53.1,38.3,29.82,West,278,11.5,11.5,57,0.00,CLR,,0.07,WeatherDisplay:10.37,2013-09-18 00:52:00,
2013-09-17 17:57:00,53.1,38.7,29.82,West,278,6.0,6.0,58,0.00,CLR,,0.07,WeatherDisplay:10.37,2013-09-18 00:57:00,
2013-09-17 18:02:00,52.9,38.5,29.81,NNW,339,3.5,3.5,58,0.00,CLR,,0.07,WeatherDisplay:10.37,2013-09-18 01:02:00,
2013-09-17 18:07:00,52.8,38.4,29.82,West,278,16.1,16.1,58,0.00,CLR,,0.07,WeatherDisplay:10.37,2013-09-18 01:07:00,
2013-09-17 18:12:00,52.8,38.4,29.82,West,267,3.5,3.5,58,0.00,CLR,,0.07,WeatherDisplay:10.37,2013-09-18 01:12:00,
2013-09-17 18:17:00,52.9,38.5,29.82,West,271,3.5,3.5,58,0.00,CLR,,0.07,WeatherDisplay:10.37,2013-09-18 01:17:00,
2013-09-17 18:22:00,53.1,38.7,29.82,WNW,284,11.0,11.0,58,0.00,CLR,,0.07,WeatherDisplay:10.37,2013-09-18 01:22:00,
2013-09-17 18:27:00,53.1,39.1,29.83,West,275,3.0,3.0,59,0.00,CLR,,0.07,WeatherDisplay:10.37,2013-09-18 01:27:00,
2013-09-17 18:32:00,52.9,38.5,29.83,West,272,1.1,0.0,58,0.00,CLR,,0.07,WeatherDisplay:10.37,2013-09-18 01:32:00,
2013-09-17 18:37:00,52.6,38.7,29.83,West,274,0.0,0.0,59,0.00,CLR,,0.07,WeatherDisplay:10.37,2013-09-18 01:37:00,
2013-09-17 18:42:00,52.3,38.8,29.84,WNW,289,0.0,0.0,60,0.00,CLR,,0.07,WeatherDisplay:10.37,2013-09-18 01:42:00,
2013-09-17 18:47:00,52.0,39.0,29.84,NW,304,0.0,0.0,61,0.00,CLR,,0.07,WeatherDisplay:10.37,2013-09-18 01:47:00,
2013-09-17 18:52:00,51.7,38.7,29.84,West,264,1.1,1.1,61,0.00,CLR,,0.07,WeatherDisplay:10.37,2013-09-18 01:52:00,
2013-09-17 18:57:00,51.4,38.8,29.84,WNW,292,0.0,0.0,62,0.00,CLR,,0.07,WeatherDisplay:10.37,2013-09-18 01:57:00,
2013-09-17 19:02:00,51.1,38.5,29.84,WNW,288,0.0,0.0,62,0.00,CLR,,0.07,WeatherDisplay:10.37,2013-09-18 02:02:00,
2013-09-17 19:07:00,51.0,38.4,29.84,WNW,288,0.0,0.0,62,0.00,CLR,,0.07,WeatherDisplay:10.37,2013-09-18 02:07:00,
2013-09-17 19:12:00,50.8,38.7,29.84,WNW,288,0.0,0.0,63,0.00,CLR,,0.07,WeatherDisplay:10.37,2013-09-18 02:12:00,
2013-09-17 19:17:00,50.7,38.1,29.84,WNW,289,0.0,0.0,62,0.00,CLR,,0.07,WeatherDisplay:10.37,2013-09-18 02:17:00,
2013-09-17 19:22:00,50.7,38.1,29.85,WNW,289,0.0,0.0,62,0.00,CLR,,0.07,WeatherDisplay:10.37,2013-09-18 02:22:00,
2013-09-17 19:27:00,50.7,38.6,29.85,West,280,0.0,0.0,63,0.00,CLR,,0.07,WeatherDisplay:10.37,2013-09-18 02:27:00,
2013-09-17 19:32:00,50.7,38.1,29.85,WNW,288,2.3,0.0,62,0.00,CLR,,0.07,WeatherDisplay:10.37,2013-09-18 02:32:00,
2013-09-17 19:37:00,50.7,38.1,29.85,West,275,1.0,0.0,62,0.00,CLR,,0.07,WeatherDisplay:10.37,2013-09-18 02:37:00,
2013-09-17 19:42:00,50.4,38.3,29.86,West,274,2.3,0.0,63,0.00,CLR,,0.07,WeatherDisplay:10.37,2013-09-18 02:42:00,
2013-09-17 19:47:00,50.2,38.1,29.86,West,277,0.0,0.0,63,0.00,CLR,,0.07,WeatherDisplay:10.37,2013-09-18 02:47:00,
2013-09-17 19:52:00,50.1,38.0,29.86,West,277,0.0,0.0,63,0.00,CLR,,0.07,WeatherDisplay:10.37,2013-09-18 02:52:00,
2013-09-17 19:57:00,49.9,38.2,29.86,West,277,0.0,0.0,64,0.00,CLR,,0.07,WeatherDisplay:10.37,2013-09-18 02:57:00,
2013-09-17 20:02:00,49.6,37.9,29.87,West,277,0.0,0.0,64,0.00,CLR,,0.07,WeatherDisplay:10.37,2013-09-18 03:02:00,
2013-09-17 20:07:00,49.6,37.9,29.88,West,277,0.0,0.0,64,0.00,CLR,,0.07,WeatherDisplay:10.37,2013-09-18 03:07:00,
2013-09-17 20:12:00,49.5,38.2,29.88,West,277,0.0,0.0,65,0.00,CLR,,0.07,WeatherDisplay:10.37,2013-09-18 03:12:00,
2013-09-17 20:17:00,49.4,38.1,29.89,West,277,0.0,0.0,65,0.00,CLR,,0.07,WeatherDisplay:10.37,2013-09-18 03:17:00,
2013-09-17 20:22:00,49.2,38.3,29.90,West,277,0.0,0.0,66,0.00,CLR,,0.07,WeatherDisplay:10.37,2013-09-18 03:22:00,
2013-09-17 20:27:00,49.2,37.9,29.90,West,277,0.0,0.0,65,0.00,CLR,,0.07,WeatherDisplay:10.37,2013-09-18 03:27:00,
2013-09-17 20:32:00,49.4,38.5,29.91,West,277,0.0,0.0,66,0.00,CLR,,0.07,WeatherDisplay:10.37,2013-09-18 03:32:00,
2013-09-17 20:37:00,49.4,38.5,29.91,West,277,0.0,0.0,66,0.00,CLR,,0.07,WeatherDisplay:10.37,2013-09-18 03:37:00,
2013-09-17 20:42:00,49.2,38.7,29.91,West,275,0.0,0.0,67,0.00,CLR,,0.07,WeatherDisplay:10.37,2013-09-18 03:42:00,
2013-09-17 20:47:00,48.9,38.8,29.91,West,275,0.0,0.0,68,0.00,CLR,,0.07,WeatherDisplay:10.37,2013-09-18 03:47:00,
2013-09-17 20:52:00,48.8,38.3,29.91,West,275,0.0,0.0,67,0.00,CLR,,0.07,WeatherDisplay:10.37,2013-09-18 03:52:00,
2013-09-17 20:57:00,48.8,38.3,29.91,West,275,0.0,0.0,67,0.00,CLR,,0.07,WeatherDisplay:10.37,2013-09-18 03:57:00,
2013-09-17 21:01:00,48.8,38.3,29.91,West,275,0.0,0.0,67,0.00,CLR,,0.07,WeatherDisplay:10.37,2013-09-18 04:01:00,
2013-09-17 21:04:00,48.8,38.3,29.90,West,275,0.0,0.0,67,0.00,CLR,,0.07,WeatherDisplay:10.37,2013-09-18 04:04:00,
2013-09-17 21:05:00,48.8,38.3,29.90,West,275,0.0,0.0,67,0.00,CLR,,0.07,WeatherDisplay:10.37,2013-09-18 04:05:00,
2013-09-17 21:07:00,48.9,38.4,29.90,West,275,0.0,0.0,67,0.00,CLR,,0.07,WeatherDisplay:10.37,2013-09-18 04:07:00,
2013-09-17 21:12:00,48.8,38.7,29.90,West,275,0.0,0.0,68,0.00,CLR,,0.07,WeatherDisplay:10.37,2013-09-18 04:12:00,
2013-09-17 21:17:00,48.8,38.7,29.90,West,275,0.0,0.0,68,0.00,CLR,,0.07,WeatherDisplay:10.37,2013-09-18 04:17:00,
2013-09-17 21:22:00,48.6,38.5,29.91,West,275,0.0,0.0,68,0.00,CLR,,0.07,WeatherDisplay:10.37,2013-09-18 04:22:00,
2013-09-17 21:27:00,48.5,38.4,29.91,West,275,0.0,0.0,68,0.00,CLR,,0.07,WeatherDisplay:10.37,2013-09-18 04:27:00,
2013-09-17 21:32:00,48.5,38.4,29.91,West,275,0.0,0.0,68,0.00,CLR,,0.07,WeatherDisplay:10.37,2013-09-18 04:32:00,
2013-09-17 21:37:00,48.5,38.4,29.91,West,275,0.0,0.0,68,0.00,CLR,,0.07,WeatherDisplay:10.37,2013-09-18 04:37:00,
2013-09-17 21:42:00,48.2,38.9,29.91,West,275,0.0,0.0,70,0.00,CLR,,0.07,WeatherDisplay:10.37,2013-09-18 04:42:00,
2013-09-17 21:47:00,47.9,38.6,29.91,West,275,0.0,0.0,70,0.00,CLR,,0.07,WeatherDisplay:10.37,2013-09-18 04:47:00,
2013-09-17 21:52:00,47.4,38.8,29.91,West,275,0.0,0.0,72,0.00,CLR,,0.07,WeatherDisplay:10.37,2013-09-18 04:52:00,
2013-09-17 21:57:00,47.0,38.4,29.91,West,275,0.0,0.0,72,0.00,CLR,,0.07,WeatherDisplay:10.37,2013-09-18 04:57:00,
2013-09-17 22:02:00,46.7,38.5,29.91,West,275,0.0,0.0,73,0.00,CLR,,0.07,WeatherDisplay:10.37,2013-09-18 05:02:00,
2013-09-17 22:07:00,46.2,38.4,29.91,West,275,0.0,0.0,74,0.00,CLR,,0.07,WeatherDisplay:10.37,2013-09-18 05:07:00,
2013-09-17 22:12:00,46.1,38.3,29.92,West,275,0.0,0.0,74,0.00,CLR,,0.07,WeatherDisplay:10.37,2013-09-18 05:12:00,
2013-09-17 22:17:00,46.1,37.9,29.92,West,275,0.0,0.0,73,0.00,CLR,,0.07,WeatherDisplay:10.37,2013-09-18 05:17:00,
2013-09-17 22:22:00,46.2,38.0,29.92,West,275,0.0,0.0,73,0.00,CLR,,0.07,WeatherDisplay:10.37,2013-09-18 05:22:00,
2013-09-17 22:27:00,46.2,37.7,29.92,West,275,0.0,0.0,72,0.00,CLR,,0.07,WeatherDisplay:10.37,2013-09-18 05:27:00,
2013-09-17 22:32:00,46.4,37.9,29.92,West,275,0.0,0.0,72,0.00,CLR,,0.07,WeatherDisplay:10.37,2013-09-18 05:32:00,
2013-09-17 22:34:00,46.4,38.2,29.92,West,275,0.0,0.0,73,0.00,CLR,,0.07,WeatherDisplay:10.37,2013-09-18 05:34:00,
2013-09-17 22:39:00,46.7,37.8,29.91,West,275,0.0,0.0,71,0.00,CLR,,0.07,WeatherDisplay:10.37,2013-09-18 05:39:00,
2013-09-17 22:44:00,47.0,37.7,29.92,West,275,0.0,0.0,70,0.00,CLR,,0.07,WeatherDisplay:10.37,2013-09-18 05:44:00,
2013-09-17 22:49:00,47.1,37.8,29.92,West,275,0.0,0.0,70,0.00,CLR,,0.07,WeatherDisplay:10.37,2013-09-18 05:49:00,
2013-09-17 22:54:00,47.1,37.8,29.92,West,275,0.0,0.0,70,0.00,CLR,,0.07,WeatherDisplay:10.37,2013-09-18 05:54:00,
2013-09-17 22:59:00,47.4,37.7,29.92,West,275,0.0,0.0,69,0.00,CLR,,0.07,WeatherDisplay:10.37,2013-09-18 05:59:00,
2013-09-17 23:04:00,47.6,37.9,29.90,West,275,0.0,0.0,69,0.00,CLR,,0.07,WeatherDisplay:10.37,2013-09-18 06:04:00,
2013-09-17 23:09:00,47.9,37.8,29.91,West,274,0.0,0.0,68,0.00,CLR,,0.07,WeatherDisplay:10.37,2013-09-18 06:09:00,
2013-09-17 23:14:00,48.0,37.9,29.90,West,272,0.0,0.0,68,0.00,CLR,,0.07,WeatherDisplay:10.37,2013-09-18 06:14:00,
2013-09-17 23:19:00,48.0,37.9,29.90,South,178,0.0,0.0,68,0.00,CLR,,0.07,WeatherDisplay:10.37,2013-09-18 06:19:00,
2013-09-17 23:24:00,47.7,38.0,29.91,South,178,0.0,0.0,69,0.00,CLR,,0.07,WeatherDisplay:10.37,2013-09-18 06:24:00,
2013-09-17 23:29:00,47.6,38.3,29.90,South,178,0.0,0.0,70,0.00,CLR,,0.07,WeatherDisplay:10.37,2013-09-18 06:29:00,
2013-09-17 23:34:00,47.3,38.0,29.91,South,178,0.0,0.0,70,0.00,CLR,,0.07,WeatherDisplay:10.37,2013-09-18 06:34:00,
2013-09-17 23:39:00,47.1,38.2,29.92,South,178,0.0,0.0,71,0.00,CLR,,0.07,WeatherDisplay:10.37,2013-09-18 06:39:00,
2013-09-17 23:44:00,46.5,38.0,29.92,South,178,0.0,0.0,72,0.00,CLR,,0.07,WeatherDisplay:10.37,2013-09-18 06:44:00,
2013-09-17 23:49:00,46.1,37.6,29.92,South,178,0.0,0.0,72,0.00,CLR,,0.07,WeatherDisplay:10.37,2013-09-18 06:49:00,
2013-09-17 23:54:00,46.0,37.8,29.92,South,178,0.0,0.0,73,0.00,CLR,,0.07,WeatherDisplay:10.37,2013-09-18 06:54:00,
2013-09-17 23:59:00,45.8,37.6,29.92,South,178,0.0,0.0,73,0.00,CLR,,0.07,WeatherDisplay:10.37,2013-09-18 06:59:00,